Wind_Speed
5 5 5 5 7 9 11 13 17 18 18 19 20 19 18 17 17 19 21 21 22 23 24 24 26 28 30 31 31 31 32 36 36 32 33 42 38 33 24 25 28 31 23 19 35
6 6 6 6 6 7 8 10 12 15 17 17 17 17 18 18 18 19 19 20 22 23 25 26 27 31 34 35 35 34 31 33 36 35 27 33 37 41 31 26 30 27 24 21 19
7 7 6 7 7 7 7 7 8 9 10 12 14 14 14 14 15 16 17 17 19 21 23 25 28 31 35 36 39 38 33 28 33 40 36 35 37 39 38 32 24 25 24 25 23
7 8 8 7 7 8 8 9 10 10 10 10 11 12 12 12 13 14 14 16 17 19 21 22 25 30 35 39 41 42 37 34 32 38 43 37 42 45 40 41 33 26 27 24 20
8 8 8 9 9 8 9 9 11 11 12 12 12 12 12 12 12 13 14 16 17 19 20 23 25 28 32 36 40 43 38 40 37 34 34 45 37 40 46 34 28 35 35 33 35
8 8 7 8 9 9 9 9 10 11 13 13 12 13 12 13 14 14 14 15 18 19 20 19 18 22 27 34 35 35 35 37 39 36 33 38 53 29 16 34 30 22 34 39 41
9 8 7 7 8 8 9 9 10 11 11 12 14 14 13 13 13 14 15 17 18 18 17 13 11 15 17 22 30 30 27 30 34 35 33 29 35 38 34 33 38 27 24 25 23
9 8 7 6 6 6 7 8 8 9 10 11 12 14 13 12 12 12 14 15 15 17 14 11 10 14 13 14 21 24 23 24 28 32 30 28 26 17 21 32 30 26 42 20 21
10 9 7 6 5 6 6 7 7 7 8 10 11 12 11 11 12 12 14 14 13 15 13 11 11 13 10 9 12 16 22 24 27 29 30 26 20 10 14 25 28 37 33 31 10
10 10 9 8 7 7 7 7 8 9 9 9 9 10 10 10 11 12 13 12 12 13 11 12 12 12 11 9 14 18 19 21 24 27 26 23 21 19 18 22 21 19 10 12 9
12 11 10 9 9 8 8 8 9 10 10 10 11 12 12 12 12 11 13 11 10 12 13 13 13 11 13 17 16 14 15 18 19 21 23 26 17 19 15 23 23 19 18 17 21
13 12 12 11 11 9 9 10 10 9 9 9 11 11 12 12 12 11 12 11 10 11 12 14 14 14 12 11 13 14 16 16 18 21 24 24 22 21 10 22 24 23 24 25 23
17 14 14 13 12 10 10 10 10 10 10 10 10 10 9 9 10 11 11 9 10 11 11 14 15 15 17 17 16 15 16 17 21 22 26 21 26 13 14 11 17 22 25 25 28
19 18 16 14 14 12 11 9 10 11 11 10 10 9 9 10 12 12 11 9 11 13 11 13 15 17 20 20 21 20 21 21 23 23 23 27 30 23 18 18 20 24 28 30 33
19 19 18 17 16 15 14 11 12 11 11 12 13 13 13 12 12 12 12 12 13 14 13 12 14 15 18 22 24 24 24 25 25 26 29 28 28 29 31 28 30 32 34 38 39
18 18 19 18 17 17 16 15 14 13 15 13 14 14 15 16 14 13 12 14 15 15 16 16 17 17 18 20 24 25 25 27 28 29 32 34 37 39 37 35 34 38 38 38 37
20 19 18 17 18 18 19 19 18 17 16 17 15 13 16 18 14 13 14 16 15 14 15 16 18 19 19 18 20 20 22 25 29 29 34 35 38 41 40 39 37 37 37 37 38
20 21 18 17 17 18 21 21 19 19 19 19 19 16 16 16 14 13 10 10 11 10 12 13 16 17 18 16 19 19 18 18 21 27 29 31 34 33 35 35 35 36 36 37 40
18 20 20 18 18 20 20 20 20 19 20 19 20 18 19 18 12 9 7 5 9 9 11 14 16 19 19 16 16 17 17 14 17 22 25 28 29 30 31 31 33 35 36 37 36
18 20 20 20 20 20 20 22 21 20 21 20 19 20 21 22 18 13 11 9 9 9 13 15 14 18 19 18 16 16 16 16 15 20 24 24 26 29 30 33 34 35 36 38 40
19 18 20 19 20 22 23 25 25 23 21 21 22 23 22 23 24 23 19 16 12 10 12 16 17 18 22 20 19 16 16 17 17 18 22 26 25 27 31 34 37 40 41 44 49
19 16 18 17 18 20 22 24 24 24 23 22 22 25 24 25 27 25 21 17 14 10 11 16 18 17 24 23 22 20 17 16 17 19 22 25 26 28 30 33 36 38 42 45 49
20 18 17 17 18 18 20 22 22 22 23 22 22 23 25 27 28 28 22 18 14 13 16 20 21 22 21 23 23 21 18 20 20 21 23 26 27 28 31 34 35 39 45 49 51
23 20 20 19 18 18 20 21 23 21 20 21 22 22 24 26 28 23 20 16 14 15 20 22 21 19 19 20 21 22 22 22 23 24 24 25 27 30 33 36 40 44 48 51 53
25 23 21 22 20 21 22 23 22 21 21 22 20 23 24 24 24 21 20 16 14 15 18 20 19 18 16 17 17 18 19 20 21 23 26 27 31 34 38 41 45 47 48 48 47
26 26 24 26 21 22 23 24 23 23 22 23 21 23 22 20 23 20 18 16 16 16 16 18 22 20 18 18 19 19 19 21 24 28 31 34 37 40 42 43 44 44 43 43 42
26 26 26 27 25 24 23 23 23 23 23 24 23 23 23 21 22 20 19 19 19 19 18 18 21 23 20 22 21 20 22 25 29 32 34 36 37 38 40 39 40 40 41 38 40
Wind_Direction
284 268 260 258 250 248 246 241 237 238 241 241 242 244 247 248 246 245 245 249 249 251 252 253 255 258 259 258 257 256 245 243 234 243 249 261 257 253 229 229 230 233 238 235 195
290 283 271 259 253 248 245 242 239 238 239 240 239 238 241 246 250 251 253 254 254 251 252 253 254 255 255 255 254 253 251 244 239 234 236 248 256 259 249 232 231 225 231 234 238
289 278 277 269 261 253 249 242 236 231 229 232 236 238 241 245 250 253 256 258 258 257 256 256 253 251 251 252 252 250 250 247 243 234 236 235 251 255 259 233 231 225 226 235 238
307 280 267 268 264 257 254 250 243 236 233 231 236 241 247 252 257 263 265 266 267 268 269 265 263 256 251 250 251 249 244 246 247 240 231 239 248 253 259 243 222 232 226 226 224
315 299 274 263 264 260 257 257 253 248 244 245 249 253 256 261 264 270 276 278 278 279 277 280 275 263 252 251 250 250 245 242 241 248 246 240 245 245 244 251 222 238 219 227 232
325 312 291 272 266 258 255 258 258 255 250 252 256 259 262 265 272 276 279 281 282 280 285 291 282 273 266 255 251 252 246 244 243 243 246 245 251 260 259 263 228 223 235 217 234
333 326 316 297 274 264 258 257 260 260 261 259 259 263 267 270 277 281 283 284 290 293 292 297 284 293 274 258 247 253 251 244 245 247 251 250 255 279 271 267 258 253 209 239 238
331 333 324 323 303 277 264 264 262 259 259 261 265 269 270 272 276 278 281 285 292 292 293 299 290 285 275 257 249 249 252 251 241 242 242 248 253 266 274 247 250 269 255 234 231
322 323 318 309 307 293 277 269 267 265 264 263 263 266 270 272 276 278 280 284 290 291 293 298 292 283 267 249 243 251 251 244 229 233 239 247 247 238 248 260 262 263 268 265 230
306 308 310 303 290 287 289 287 281 277 276 275 267 267 269 274 274 278 277 281 287 284 278 287 290 281 242 225 246 258 247 233 225 230 237 246 250 240 270 247 260 251 240 263 263
297 296 297 297 293 288 286 282 279 278 274 272 272 272 274 273 270 270 277 275 279 277 268 275 276 267 248 233 240 246 239 234 235 239 237 250 243 257 253 240 226 254 267 256 269
288 288 286 285 288 292 283 275 277 278 271 271 268 268 272 271 267 268 273 274 278 274 270 267 268 258 250 247 254 250 249 244 233 234 235 249 254 259 243 228 230 243 252 249 263
282 281 284 285 286 291 285 282 274 270 269 270 273 268 267 271 264 261 262 273 280 280 272 264 263 260 257 256 256 256 254 248 247 242 238 249 256 277 260 237 238 248 261 263 270
281 275 274 278 280 279 276 278 274 273 274 271 263 256 267 272 267 262 268 277 279 275 263 259 268 265 259 258 256 255 255 257 251 247 241 241 249 268 243 257 257 249 257 267 275
278 275 269 270 274 273 274 274 273 272 272 261 261 270 268 273 266 257 264 273 269 271 275 270 270 273 272 267 260 257 254 253 253 245 243 241 251 247 255 254 255 255 265 276 274
280 275 269 265 269 272 274 274 272 269 262 265 267 276 277 271 256 257 269 274 273 270 273 272 271 267 266 269 267 270 266 264 261 262 258 252 250 253 255 255 256 261 270 273 273
279 273 268 266 268 272 276 275 272 269 268 267 271 269 268 260 261 264 270 275 272 275 268 272 276 281 285 277 273 268 266 270 263 262 260 257 256 256 261 264 266 265 266 269 268
274 276 270 266 264 269 277 275 272 269 265 269 273 273 270 274 262 257 263 273 269 274 281 281 280 283 285 278 273 277 273 270 273 259 259 260 260 265 263 265 266 267 268 270 268
274 268 273 271 271 270 273 275 272 270 271 268 269 275 277 274 269 271 292 266 270 284 290 288 287 287 287 284 274 270 276 278 275 269 264 263 268 264 264 265 269 273 278 275 269
282 274 267 268 270 268 270 273 275 277 277 277 275 280 278 279 281 277 277 260 260 272 280 282 282 284 283 285 277 281 281 277 271 267 269 277 271 269 269 271 271 273 275 270 271
285 279 273 267 263 261 262 264 269 272 275 277 274 274 276 278 283 283 279 268 263 269 271 280 284 284 282 286 287 284 281 279 273 269 273 275 275 276 274 274 273 272 272 271 272
287 284 278 273 266 263 260 265 269 270 267 266 269 273 272 276 278 284 286 280 273 272 273 278 293 287 286 287 287 285 285 278 273 270 272 275 279 283 282 280 280 279 278 278 277
293 286 278 273 265 263 262 264 266 264 261 260 261 268 270 272 269 278 278 272 267 275 280 293 297 291 286 287 286 285 279 277 275 274 275 274 276 272 273 275 276 276 276 277 280
279 281 280 274 269 264 266 264 265 263 259 256 262 265 262 266 268 271 264 254 256 276 290 299 298 293 292 289 286 287 287 285 282 282 281 280 278 275 274 274 274 274 277 281 285
274 270 269 270 269 269 265 266 266 269 267 261 257 257 259 263 261 252 246 246 261 278 290 294 295 295 295 293 291 290 288 287 287 286 284 282 283 284 285 285 286 291 292 293 293
273 270 263 265 257 260 260 261 261 266 265 265 259 260 257 270 259 250 248 253 266 276 285 288 289 290 293 291 290 289 288 287 285 286 287 287 287 288 287 289 292 294 294 296 299
267 266 262 260 259 257 258 257 258 258 262 263 256 255 256 262 257 250 247 254 265 272 278 286 285 283 284 293 295 289 285 287 290 290 290 289 290 291 294 296 296 298 301 303 304
Height
5845 5844 5844 5844 5845 5845 5845 5846 5847 5849 5850 5851 5852 5853 5855 5856 5857 5858 5859 5861 5862 5863 5863 5865 5866 5866 5866 5868 5869 5871 5875 5877 5881 5879 5878 5869 5878 5884 5885 5886 5893 5897 5899 5900 5900
5843 5842 5842 5842 5843 5843 5843 5844 5844 5845 5846 5847 5848 5849 5850 5851 5852 5854 5855 5856 5857 5857 5858 5860 5861 5862 5861 5862 5863 5864 5869 5871 5875 5877 5874 5872 5872 5873 5883 5882 5885 5889 5890 5895 5900
5841 5841 5840 5840 5841 5841 5841 5842 5842 5843 5843 5844 5844 5845 5847 5848 5849 5850 5850 5851 5852 5852 5853 5854 5855 5856 5855 5856 5857 5858 5864 5866 5868 5869 5870 5869 5866 5870 5875 5877 5880 5883 5885 5890 5894
5839 5839 5838 5838 5838 5838 5839 5839 5840 5840 5841 5842 5842 5843 5844 5845 5847 5846 5846 5847 5847 5847 5847 5848 5848 5849 5850 5850 5849 5851 5858 5860 5862 5862 5867 5866 5862 5866 5869 5869 5871 5879 5880 5884 5887
5838 5837 5836 5836 5836 5836 5836 5836 5837 5837 5838 5838 5839 5840 5841 5842 5842 5842 5842 5842 5842 5842 5842 5841 5841 5841 5842 5842 5842 5843 5852 5853 5856 5858 5864 5864 5851 5859 5865 5866 5865 5871 5873 5877 5879
5836 5835 5834 5834 5833 5834 5834 5834 5834 5834 5835 5835 5836 5836 5838 5839 5838 5838 5838 5838 5838 5837 5837 5836 5835 5834 5833 5834 5836 5838 5843 5848 5850 5855 5856 5858 5856 5851 5854 5855 5858 5856 5866 5867 5872
5835 5834 5832 5832 5831 5831 5831 5832 5832 5832 5833 5833 5833 5833 5835 5835 5834 5834 5834 5834 5833 5832 5832 5831 5830 5829 5827 5827 5829 5833 5838 5842 5846 5849 5850 5852 5852 5849 5861 5856 5850 5859 5865 5865 5864
5834 5832 5831 5830 5830 5830 5830 5829 5829 5830 5830 5830 5830 5830 5831 5832 5831 5831 5831 5830 5830 5829 5828 5828 5827 5825 5824 5824 5826 5830 5834 5837 5840 5842 5844 5844 5849 5852 5850 5846 5842 5853 5859 5863 5865
5833 5832 5830 5829 5828 5828 5828 5828 5828 5828 5827 5827 5828 5827 5828 5829 5828 5828 5828 5827 5827 5826 5825 5825 5825 5823 5822 5822 5825 5826 5829 5832 5834 5837 5839 5842 5850 5849 5847 5843 5846 5843 5854 5854 5856
5831 5831 5830 5828 5827 5827 5827 5827 5827 5826 5826 5826 5826 5827 5826 5827 5826 5826 5825 5825 5824 5823 5823 5823 5823 5821 5821 5821 5823 5823 5824 5827 5830 5833 5838 5840 5844 5840 5840 5839 5839 5846 5845 5845 5845
5829 5828 5828 5827 5826 5825 5826 5825 5826 5825 5824 5824 5824 5823 5823 5823 5823 5823 5823 5823 5822 5822 5821 5821 5821 5820 5819 5819 5820 5821 5823 5826 5829 5831 5836 5837 5832 5835 5836 5837 5837 5839 5839 5839 5840
5826 5825 5825 5824 5824 5824 5823 5822 5822 5823 5822 5821 5821 5820 5820 5820 5820 5820 5821 5821 5820 5819 5819 5820 5819 5820 5820 5820 5820 5821 5822 5823 5826 5828 5831 5831 5831 5831 5830 5832 5833 5832 5834 5833 5835
5823 5823 5822 5822 5821 5822 5820 5820 5820 5819 5820 5819 5818 5818 5818 5819 5818 5819 5819 5818 5817 5817 5817 5817 5818 5818 5818 5819 5819 5819 5820 5821 5823 5824 5827 5829 5825 5826 5826 5827 5827 5827 5828 5828 5828
5819 5819 5819 5819 5820 5818 5818 5817 5816 5816 5817 5818 5817 5817 5817 5817 5816 5816 5816 5816 5815 5814 5814 5814 5814 5815 5814 5815 5816 5816 5817 5819 5820 5821 5822 5824 5825 5820 5823 5823 5822 5822 5822 5823 5822
5814 5814 5814 5815 5815 5815 5815 5815 5814 5814 5815 5815 5814 5814 5814 5815 5815 5814 5813 5813 5812 5811 5812 5812 5810 5810 5811 5811 5811 5813 5813 5814 5815 5815 5815 5816 5817 5814 5816 5819 5818 5817 5816 5816 5816
5810 5809 5809 5810 5811 5811 5811 5811 5812 5813 5811 5811 5810 5811 5811 5810 5811 5810 5810 5810 5808 5807 5807 5807 5808 5808 5807 5807 5808 5809 5810 5809 5810 5809 5808 5808 5809 5807 5809 5811 5811 5810 5809 5809 5808
5805 5805 5805 5806 5807 5807 5806 5807 5809 5808 5809 5808 5808 5808 5808 5807 5808 5808 5807 5806 5806 5805 5804 5804 5804 5803 5803 5804 5804 5805 5805 5803 5803 5801 5799 5800 5799 5799 5801 5804 5804 5803 5802 5801 5800
5799 5800 5800 5801 5802 5802 5802 5803 5804 5804 5804 5805 5804 5805 5804 5803 5805 5805 5805 5803 5802 5802 5801 5801 5801 5800 5800 5800 5799 5798 5798 5798 5795 5794 5794 5791 5791 5794 5793 5795 5796 5796 5796 5795 5793
5794 5794 5796 5796 5797 5798 5798 5798 5799 5799 5799 5800 5800 5801 5800 5800 5802 5802 5801 5800 5800 5800 5800 5798 5798 5796 5796 5795 5796 5794 5794 5793 5791 5789 5788 5787 5788 5788 5789 5789 5789 5790 5789 5788 5787
5789 5789 5789 5791 5792 5793 5794 5794 5794 5795 5796 5796 5796 5797 5797 5796 5798 5798 5798 5798 5797 5797 5796 5795 5795 5792 5791 5790 5791 5791 5790 5790 5788 5786 5784 5783 5783 5783 5785 5785 5785 5785 5784 5782 5780
5784 5784 5784 5786 5786 5787 5788 5788 5789 5790 5791 5792 5792 5792 5793 5793 5792 5793 5795 5795 5794 5794 5793 5791 5791 5790 5787 5786 5786 5787 5786 5785 5785 5783 5780 5778 5780 5779 5778 5778 5778 5777 5775 5773 5770
5779 5779 5779 5779 5781 5781 5781 5782 5784 5785 5786 5786 5787 5787 5789 5789 5788 5788 5789 5791 5791 5790 5788 5786 5786 5785 5781 5782 5782 5781 5781 5781 5779 5779 5776 5774 5775 5773 5771 5770 5769 5767 5764 5761 5757
5775 5774 5774 5774 5774 5775 5775 5776 5778 5779 5780 5781 5782 5783 5784 5784 5784 5784 5784 5785 5786 5785 5783 5782 5781 5779 5777 5778 5776 5776 5776 5775 5774 5773 5772 5770 5771 5768 5765 5762 5760 5757 5752 5749 5745
5769 5769 5769 5768 5768 5769 5769 5770 5771 5773 5774 5775 5777 5778 5778 5777 5777 5778 5778 5779 5780 5780 5779 5777 5776 5775 5774 5772 5771 5770 5770 5769 5768 5767 5766 5764 5761 5759 5756 5754 5751 5746 5743 5740 5736
5761 5762 5763 5761 5763 5764 5763 5764 5765 5767 5768 5770 5772 5771 5771 5771 5771 5772 5773 5774 5776 5776 5774 5772 5771 5771 5770 5768 5766 5766 5764 5763 5762 5760 5757 5756 5752 5750 5747 5743 5740 5737 5733 5730 5726
5754 5754 5755 5754 5756 5757 5757 5758 5759 5760 5763 5764 5765 5765 5765 5766 5767 5769 5770 5771 5772 5772 5771 5768 5766 5766 5766 5764 5763 5761 5760 5758 5755 5753 5750 5747 5744 5741 5737 5734 5730 5726 5722 5719 5715
5745 5745 5746 5747 5749 5749 5751 5751 5752 5753 5756 5758 5759 5759 5760 5761 5762 5764 5765 5767 5767 5768 5767 5766 5763 5761 5761 5759 5758 5757 5754 5752 5749 5746 5743 5740 5736 5732 5727 5724 5718 5715 5711 5707 5703